Hourly Data Report for August 15, 2021

ALGONQUIN PARK EAST GATE
ONTARIO
Current Station Operator: ECCC - MSC

45°32'00.000" N
78°16'00.000" W
397.00 m
6080192
71581
TNK

Download Data

Hourly Data (August 2021)
Hourly Data Report for August 15, 2021
TIME
LST
Temp Definition
°C
Dew Point Definition
°C
Rel Hum Definition
%
Precip. Amount Definition
mm

Wind Dir Definition
10's deg

Wind Spd Definition
km/h
Visibility Definition
km
Stn Press Definition
kPa
Hmdx Definition


Wind Chill Definition


Weather Definition


00:00 7.4 6.9 97 0.0   0   97.79     LegendNANA
01:00 6.5 6.1 97 0.0   0   97.81     LegendNANA
02:00 5.8 5.4 97 0.0   0   97.80     LegendNANA
03:00 5.2 4.8 98 0.0   0   97.81     LegendNANA
04:00 6.1 6.0 99 0.0   0   97.84     LegendNANA
05:00 6.2 6.0 99 0.0   0   97.85     LegendNANA
06:00 6.0 5.9 99 0.0   0   97.90     LegendNANA
07:00 7.8 7.6 99 0.0   0   97.93     LegendNANA
08:00 11.4 10.1 92 0.0 23 3   97.93     LegendNANA
09:00 16.7 12.5 76 0.0 1 2   97.92     LegendNANA
10:00 18.3 10.0 59 0.0 25 4   97.88     LegendNANA
11:00 19.9 7.3 44 0.0 33 3   97.85     LegendNANA
12:00 20.8 7.5 42 0.0 24 8   97.80     LegendNANA
13:00 21.7 8.2 42 0.0 23 4   97.76     LegendNANA
14:00 22.7 9.7 44 0.0 24 7   97.72     LegendNANA
15:00 21.4 9.8 48 0.0 25 4   97.69     LegendNANA
16:00 22.7 9.4 43 0.0 24 5   97.65     LegendNANA
17:00 22.2 8.9 43 0.0 26 4   97.63     LegendNANA
18:00 20.0 12.1 61 0.0 26 2   97.58     LegendNANA
19:00 16.5 12.0 74 0.0   0   97.55     LegendNANA
20:00 14.2 11.9 86 0.0   0   97.54     LegendNANA
21:00 12.5 11.2 92 0.0   0   97.58     LegendNANA
22:00 11.1 10.3 95 0.0   0   97.56     LegendNANA
23:00 10.1 9.4 96 0.0   0   97.58     LegendNANA

Notes on Data Quality.

Legend

  • E = Estimated
  • M = Missing
  • NA = Not Available*
  • [empty] = Indicates an unobserved value
Date modified: